Regional Weather Roundup
Issued by NWS Kansas City/Pleasant Hill, MO

Home | Current Version | Previous Version | Text Only | Print | Product List | Glossary On
Versions: 1 2 3 4 5 6 7 8 9 10 11 12 13 14 15 16 17 18 19 20 21 22 23 24 25 26 27 28 29 30 31 32 33 34 35 36 37 38 39 40 41 42 43 44 45 46 47 48 49 50
506
ASUS43 KEAX 300910
RWREAX

WEATHER ROUNDUP FOR EASTERN KANSAS AND NORTHWEST MISSOURI
NATIONAL WEATHER SERVICE KANSAS CITY/PLEASANT HILL MO
400 AM CDT TUE AUG 30 2016

KSZ040-057-103>105-MOZ028-029-037-043-301000-
...KANSAS CITY METROPOLITAN AREA...

CITY           SKY/WX    TMP DP  RH WIND       PRES   REMARKS
K.C. INTL      LGT RAIN  71  69  93 NE13      30.16F
K.C. DOWNTOWN  LGT RAIN  73  70  90 NE5       30.16S
LEES SUMMIT    RAIN      69  68  96 N8        30.18R FOG
OLATHE - IXD   CLOUDY    72  70  93 NE6       30.15S
OLATHE - OJC   TSTM      69  68  96 N15       30.16F FOG
LAWRENCE       CLOUDY    73  71  93 NE7       30.15S

$$

MOZ001>008-011>017-020>025-030>033-038>040-044>046-053-054-301000-
...NORTHERN AND CENTRAL MISSOURI...

CITY           SKY/WX    TMP DP  RH WIND       PRES   REMARKS
ST. JOSEPH     MOCLDY    70  69  97 N5        30.15F
MOSBY          CLOUDY    72  70  94 S3        30.20R
WHITEMAN AFB   MOCLDY    76  76 100 N10       30.14R
CLINTON        PTCLDY    72  72 100 NW6       30.13F FOG
SEDALIA        CLOUDY    74  71  91 SE3       30.14F FOG
WARSAW         NOT AVBL
CHILLICOTHE      N/A     72  69  90 NW3       30.17R
KIRKSVILLE     PTCLDY    71  69  93 NE8       30.16S

$$

MOZ041-047>049-056>058-063>065-088>090-097-301000-
...EASTERN AND SOUTHERN MISSOURI...

CITY           SKY/WX    TMP DP  RH WIND       PRES   REMARKS
ST. LOUIS INTL CLEAR     78  72  81 E3        30.13F
SPIRIT OF STL  CLEAR     73  73 100 CALM      30.11F FOG
COLUMBIA       CLEAR     74  72  93 E5        30.13F
JEFFERSON CITY CLEAR     72  71  97 CALM      30.12S
ROLLA          CLEAR     71  70  96 SE3       30.13F
OSAGE BEACH    CLEAR     70  69  97 CALM      30.14S FOG
SPRINGFIELD    CLEAR     74  70  87 CALM      30.14S
BRANSON        CLOUDY    68  68 100 CALM      30.14F
JOPLIN         CLEAR     71  69  93 E3        30.13S
WEST PLAINS    PTCLDY    72  69  90 CALM      30.15F

$$

IAZ060-094-KSZ022-034>040-054-083-096-NEZ052-066-093-301000-
...KANSAS...SOUTHEAST NEBRASKA AND IOWA...

CITY           SKY/WX    TMP DP  RH WIND       PRES   REMARKS
TOPEKA         CLOUDY    72  68  87 E6        30.15S
MANHATTAN      PTCLDY    71  68  90 NE5       30.15S
EMPORIA        MOCLDY    73  71  93 NE6       30.14S
CHANUTE        CLEAR     72  71  97 CALM      30.12F
WICHITA        MOCLDY    74  70  87 NW5       30.14S
OMAHA          CLOUDY    70  67  90 CALM      30.16R
LINCOLN        MOCLDY    69  68  96 W3        30.15F
FALLS CITY     MOCLDY    70  69  97 SE3       30.14F
LAMONI         CLOUDY    69  68  96 N3        30.18R
DES MOINES     CLOUDY    72  70  93 S3        30.17R

$$





USA.gov is the U.S. government's official web portal to all federal, state and local government web resources and services.